Location: Newark
(54.0500°N, 12.8333°E)
Time: 21:06:37
(UTC+00:00)

Transit 4A - Pass Details

Date: 29 January 2020
Orbit: 872 x 973 km, 66.8° (Epoch: 22 February)

Event Time Altitude Azimuth Distance (km) Brightness Sun altitude
Rises 04:56:38 0° 202° (SSW) 3,533 10.8 -18.2°
Reaches altitude 10° 04:59:12 10° 198° (SSW) 2,580 10.1 -17.8°
Maximum altitude 05:05:01 56° 122° (ESE) 1,052 8.5 -17.0°
Drops below altitude 10° 05:10:44 10° 46° (NE) 2,544 10.7 -16.1°
Sets 05:13:15 0° 42° (NE) 3,479 11.4 -15.8°
